Meath Environmental Platform

Observations for Trim Market St

Time AQI Temp °C Hum % Pres Pa CO μg/m³ H₂S μg/m³ NO μg/m³ NO₂ μg/m³ O₃ μg/m³ SO₂ μg/m³ PM1 μg/m³ PM2.5 μg/m³ PM10 μg/m³
Tuesday 18 August 2026
06:18 2 17.4 77 17,709 0.13 0 1.92 6.6 67.28 0 2.14 3.66 6.95
06:17 2 17.4 77 18,106 0.14 0 1.92 6.36 72.49 0 2.14 3.67 6.36
06:16 2 17.4 77 18,377 0.14 0 1.92 6.29 68.44 0 1.43 2.71 6.95
06:15 2 17.4 77 18,534 0.15 0 1.92 7.27 68.2 0 0.71 2.71 5.19
06:14 2 17.4 77 18,608 0.14 0 1.92 6.36 62.8 0 1.43 3.67 6.95
06:13 2 17.4 77 18,548 0.13 0 1.92 5.72 71.55 0 2.14 3.67 6.36
06:02 2 17.5 77 18,622 0.11 0 1.91 5.87 65.74 0 1.43 2.72 6.36
06:01 2 17.5 77 18,717 0.13 0 1.9 6.01 65.91 0 0.71 2.72 6.95
06:00 2 17.4 77 18,741 0.13 0 1.92 6.22 73.47 0 0.71 2.25 4.6
05:59 2 17.5 77 18,703 0.11 0 1.9 5.13 63.26 0 1.43 3.2 6.95
05:55 2 17.4 77 18,454 0.12 0 1.92 6 68.14 0 1.43 3.2 5.78
05:54 2 17.5 77 18,493 0.16 0 1.91 6.66 65.58 0 2.14 4.15 7.53
05:53 2 17.5 77 18,543 0.12 0 1.91 5.86 68.36 0 0.71 2.72 5.78
05:52 2 17.5 77 18,611 0.13 0 1.9 6.71 68.72 0 2.14 5.1 9.29
05:51 2 17.5 77 18,702 0.12 0 1.9 6 71.58 0 1.43 3.2 5.78
05:50 2 17.5 77 18,788 0.1 0 1.9 5.76 67.4 0 1.43 2.73 6.36
05:49 2 17.5 77 18,938 0.12 0 1.9 6.43 76.09 0 2.14 2.73 6.36
05:48 2 17.5 77 19,141 0.12 0 1.9 6.54 78.46 0 1.43 3.68 7.53
05:47 2 17.5 77 19,408 0.11 0 1.9 6.65 73.57 0 1.43 4.16 7.53
05:45 2 17.5 77 20,152 0.12 0 1.91 6.87 69.74 0 1.43 3.21 6.36